Weather History for KLFK - May, 2012

Change the Weather History Date:

Monday, May 7, 2012

  Actual Average Record
Temperature  
Mean Temperature 78 °F 72 °F  
Max Temperature 91 °F 83 °F 94 °F (2010)
Min Temperature 65 °F 61 °F 44 °F (1931)
Degree Days  
Heating Degree Days 0 0  
Month to date heating degree days 0 1  
Since 1 July heating degree days 1414 1914  
Cooling Degree Days 13 7  
Month to date cooling degree days 98 46  
Year to date cooling degree days 497 222  
Growing Degree Days 30 (Base 50)    
Moisture  
Dew Point 68 °F    
Average Humidity 66    
Maximum Humidity 93    
Minimum Humidity 38    
Precipitation  
Precipitation 0.00 in 0.15 in 3.02 in (1976)
Month to date precipitation T 0.98  
Year to date precipitation 19.44 15.86  
Snow  
Snow 0.00 in - - ()
Month to date snowfall 0.0  
Since 1 July snowfall 0.0  
Snow Depth 0.00 in    
Sea Level Pressure  
Sea Level Pressure 29.86 in    
Wind  
Wind Speed 4 mph (SSW)    
Max Wind Speed 30 mph    
Max Gust Speed 43 mph    
Visibility 9 miles    
Events      
T = Trace of Precipitation, MM = Missing Value Source: NWS Daily Summary

Daily Weather History Graph

Daily Weather History Graph

Search for Another Location

Airport or City:

Trip Planner

Search our weather history database for the weather conditions in past years. The results will help you decide how hot, cold, wet, or windy it might be!

Date:

Astronomy

May. 07, 2012 Rise Set
Actual Time 6:28 AM CDT 8:02 PM CDT
Civil Twilight 6:02 AM CDT 8:28 PM CDT
Nautical Twilight 5:31 AM CDT 9:00 PM CDT
Astronomical Twilight 4:58 AM CDT 9:33 PM CDT
Moon 10:09 PM CDT (5/7) 7:40 AM CDT (5/7)
Length of Visible Light 14h 26m
Length of Day
13h 34m
Waning Gibbous, 96% of the Moon is Illuminated
May 7
Waning Gibbous
May 12
Last Quarter
May 20
New
May 28
First Quarter
Jun 4
Full

Hourly Weather History & Observations

Time (CDT) Temp. Heat Index Dew Point Humidity Pressure Visibility Wind Dir Wind Speed Gust Speed Precip Events Conditions
12:53 AM 75.0 °F - 70.0 °F 84% 29.88 in 9.0 mi South 3.5 mph - N/A   Clear
1:53 AM 75.0 °F - 70.0 °F 84% 29.86 in 8.0 mi South 4.6 mph - N/A   Clear
2:53 AM 73.9 °F - 69.1 °F 85% 29.87 in 9.0 mi South 4.6 mph - N/A   Clear
4:53 AM 73.0 °F - 69.1 °F 87% 29.85 in 7.0 mi South 6.9 mph - N/A   Clear
5:53 AM 73.0 °F - 69.1 °F 87% 29.84 in 8.0 mi SSW 4.6 mph - N/A   Clear
6:53 AM 72.0 °F - 69.1 °F 91% 29.85 in 5.0 mi Calm Calm - N/A   Clear
7:09 AM 71.6 °F - 69.8 °F 94% 29.86 in 5.0 mi SSE 3.5 mph - N/A   Partly Cloudy
7:53 AM 73.9 °F - 70.0 °F 87% 29.85 in 6.0 mi South 5.8 mph - N/A   Scattered Clouds
8:33 AM 77.0 °F - 69.8 °F 78% 29.88 in 10.0 mi SSW 5.8 mph - N/A   Mostly Cloudy
8:45 AM 77.0 °F - 69.8 °F 78% 29.87 in 10.0 mi SSW 12.7 mph - N/A   Scattered Clouds
8:53 AM 77.0 °F - 70.0 °F 79% 29.86 in 10.0 mi SSW 9.2 mph - N/A   Partly Cloudy
9:40 AM 78.8 °F - 69.8 °F 74% 29.88 in 10.0 mi SW 6.9 mph - N/A   Mostly Cloudy
9:50 AM 80.6 °F 83.9 °F 69.8 °F 70% 29.89 in 10.0 mi WSW 8.1 mph - N/A   Mostly Cloudy
9:53 AM 79.0 °F - 69.1 °F 72% 29.88 in 10.0 mi WSW 8.1 mph - N/A   Mostly Cloudy
10:12 AM 80.6 °F 83.9 °F 69.8 °F 70% 29.90 in 10.0 mi SW 8.1 mph - N/A   Scattered Clouds
10:53 AM 82.0 °F 85.5 °F 69.1 °F 65% 29.90 in 10.0 mi WSW 6.9 mph - N/A   Scattered Clouds
11:53 AM 84.9 °F 88.2 °F 68.0 °F 57% 29.91 in 10.0 mi NW 6.9 mph - N/A   Mostly Cloudy
12:53 PM 87.1 °F 89.9 °F 66.9 °F 51% 29.89 in 10.0 mi Calm Calm - N/A   Partly Cloudy
1:53 PM 89.1 °F 91.3 °F 66.0 °F 46% 29.88 in 10.0 mi Variable 4.6 mph - N/A   Scattered Clouds
2:53 PM 89.1 °F 90.3 °F 64.0 °F 43% 29.85 in 10.0 mi Calm Calm - N/A   Clear
3:53 PM 90.0 °F 89.7 °F 60.1 °F 37% 29.80 in 10.0 mi Calm Calm - N/A   Clear
4:53 PM 90.0 °F 90.0 °F 61.0 °F 38% 29.79 in 10.0 mi SSE 4.6 mph - N/A   Clear
5:53 PM 87.1 °F 88.3 °F 64.0 °F 46% 29.79 in 10.0 mi ESE 3.5 mph - N/A   Clear
6:53 PM 84.9 °F 87.6 °F 66.9 °F 55% 29.79 in 10.0 mi ESE 4.6 mph - N/A   Clear
7:53 PM 82.0 °F 84.9 °F 68.0 °F 62% 29.79 in 10.0 mi SE 3.5 mph - N/A   Clear
8:53 PM 78.1 °F - 68.0 °F 71% 29.83 in 10.0 mi Calm Calm - N/A   Clear
9:53 PM 78.1 °F - 68.0 °F 71% 29.85 in 10.0 mi South 4.6 mph - N/A   Scattered Clouds
10:53 PM 78.1 °F - 69.1 °F 74% 29.88 in 10.0 mi South 4.6 mph - N/A   Overcast
11:53 PM 75.9 °F - 69.1 °F 79% 29.93 in 10.0 mi NW 17.3 mph 28.8 mph N/A   Mostly Cloudy